Погода в Барбасене

Бразилия     21°12′55″S   43°44′56″W
темп.,
°C
ветер,
м/с
пор.,
м/с
влажн.,
%
обл.,
%
осадки,
мм/ч
давл.,
гПа
погр.,
м
28 сентября, вт
вт2800:00+15вюв23950 0.1 102077
03:00+15в229951 0.1 101971
06:00+15всв3597100 0.0 1019267
09:00+18св458381 0.0 1021513
12:00+24св335914 0.5 10181146
15:00+23в345961 1.6 1014462
18:00+19всв497738 1.1 1015219
21:00+17всв310858 1.4 1017221
29 сентября, ср
ср2900:00+17всв411860 0.0 1016303
03:00+15всв239317 0.0 101580
06:00+15ссв249479 0.0 101692
09:00+23с345798 0.0 1016652
12:00+29сз463447 0.0 10132922
15:00+26ссв354359 0.0 1009271
18:00+19в4980100 0.7 1013308
21:00+19св277989 0.8 1015184
30 сентября, чт
чт3000:00+17в228738 0.0 101544
03:00+16вюв229279 0.0 101326
06:00+16вюв11920 0.0 101520
09:00+23в32583 0.0 1015755
12:00+28в344163 0.1 10122231
15:00+24в5753100 0.3 1009541
18:00+17всв11724 10.5 101315
21:00+17вюв38880 10.8 1015179
1 октября, пт
пт100:00+16вюв379945 0.0 1015234
03:00+16в249873 0.0 1014141
06:00+16св249774 0.0 1015156
09:00+22св33712 0.0 1015471
12:00+29с45424 0.0 10111573
15:00+31св353094 0.0 10072354
18:00+22юв5872100 1.2 1011233
21:00+17в2494100 4.0 1016172
2 октября, сб
сб200:00+17всв2888100 0.2 1014246
03:00+16юв229188 0.2 101356
06:00+17св2118735 0.0 1014375
09:00+23ссв46630 0.0 1014544
12:00+30сз46370 0.0 10112002
15:00+26ююв124699 0.2 1008110
18:00+21юв5981100 0.3 1010317
21:00+18юв479787 1.3 1015322